Volver al catálogo

STARLINK-3294

ActivoComunicacionesVLEO
NORAD 50829·PAYLOAD·🇺🇸 United States

Lanzado Jan 6, 2022 desde Cape Canaveral Space Force Station

Loading…

Próximos Pases (próximas 24 horas)

TLE

ActualizadoSource: CelesTrak SupGP

Época: Sep 15, 2026, 01:37 UTC

1 50829C 22001AC  26258.06784722 -.00023275  00000+0 -70650-3 0  2587
2 50829  53.1599  27.4211 0001058  86.1126  62.3731 15.33550823    11

Sigue STARLINK-3294 en tiempo real con AllMySat

Download on the App Store